64434 station(s) have been heard in the last 24 hours.

<< 151 152 153 154 155 156 157 >>
  Name/Id Latest heard Comment/Other Map
Symbol ER1COM-D 1788458520 70cm MMDVM Voice (DMR) 439.50000MHz -9.4000MHz, APRS for DMRGateway Map
Symbol E70ARA-4 1788458520 LoRa433 APRS Digi+iGate/E7 EMCOMM/Asocijacija radioamatera u Bosni i Hercegovini-Radio klub "Mladost"Biha E71ETC-Sysop E72RAD Map
Symbol YO5ER-10 1788458520 IGate Heniu Map
Symbol GB3RB 1788458520 RB08 433.200 +1600 Map
Symbol EL-DM0ZAV 1788458520 145.237MHz T127 R13k SvxLink by SM0SVX (http://dl1zav.de) Map
Symbol VE2OFC-10 1788458520 FUCK Carney, Trudeau et Legault ! Map
Symbol TA3HAS-2 1788458520 73 de TA3HAS Map
Symbol IR1DD-3 1788458520 .IW1CGW weather Map
Symbol VK2COW-5 1788458520 10:45:46 R-109.00 S6.00 F-781.19 Map
Symbol DB0WZH-20 1788458520 LoRa APRS - Hettstadt Map
Symbol AI7NC-9 1788458520 145.450MHz Exploring Map
Symbol EA7URS-13 1788458520 aprS-weather-submit/2.0.1-dev Map
Symbol 9W2RUT-2 1788458520 IGATE MODE Map
Symbol RX3DCZ-B 1788458520 70cm Voice (D-Star) 438.03750MHz -5.0000MHz Map
Symbol SV8EUB-11 1788458520 PLXDigi U=9.8V. Map
Symbol TA1LF-D 1788458520 70cm MMDVM Voice (DMR) 432.80000MHz +0.0000MHz, APRS for DMRGateway Map
Symbol SQ4MUI-13 1788458520 t63r...p...P...h100b10159 EaSyESP + BME280 Map
Symbol JS2HGI-5 1788458520 https://aprsdroid.org Map
Symbol P-DL2RN 1788458520 DAPNET POCSAG Transmitter(048C)(ONLINE) Map
Symbol S55ML-9 1788458520 Map
Symbol WW4BP B 1788458520 70cm Voice (D-Star) 442.00000MHz +0.0000MHz Map
Symbol WW4BSA-6 1788458520 146.670MHz t127 -060 KENWOOD TM-D710G Map
Symbol F6DEV-13 1788458520 fWD Map
Symbol BG7RXQ-6 1788458520 FMO-V4,STATION,CERT:imNGTU8EaHVzZXJDZXJ0GQPpZkJHN1JYURkLOFggUxTNYOi0G5cdytPJjPLsJEqAvACm4Pr_Cs1kNqSMry8aamcY7hpsSExuWECK2Moa2p2vs0oDDF1VMcCi6T1uyc2MCkCnORmXuKOyck9uAaWSnskNUonedC8z7YhESLw1mevK2w_9D_rDDrEM,CN,CQ-E[],fmo.hm780.top,P1883,F5000KM,U15/49,SIG:m2GPWXsvyhmI5zo23Vq7P23qw3g-BjYmEZiLRNOaop9KWQchO3rNJrHnNRnrg2gDi57oBtl641QnKBWFNrEmCw Map
Symbol EA5LQ-13 1788458520 www.zausan.com Batt=4.25V Map
Symbol DE6RTS-15 1788458520 RX 145.675 V 11 Map
Symbol SK2AT-C 1788458520 2m Voice (D-Star) 145.68750MHz -0.6000MHz Map
Symbol VK3JLM-D 1788458520 Powered by WPSD (https://wpsd.radio) Map
Symbol KJ7UTC-B 1788458520 70cm Voice (D-Star) 440.00000MHz +0.0000MHz Map
Symbol SQ6KBW-10 1788458520 Arek Wabrzych LoRa APRS iGate&Digi https://lora-aprs.live/ Batt=4.26V Map
Symbol PU5SZN-3 1788458520 R.Sul APRS,ICV8,UVS300,5W,E.Temp. 27C,81F, DGP=ON Map
Symbol DL4ALF-2 1788458519 Map
Symbol KI5LAW-R2 1788458519 AllStar Repeater Hub 684953 444.625MHz T146.2 +5.0 Map
Symbol N5RVT-B 1788458519 70cm Voice (D-Star) 438.25000MHz +5.0000MHz, APRS for ircDDBGateway Map
Symbol EL-IR3UBJ 1788458519 430.287MHz T123 R19k IR3UBJ Polsa (Tn) Shift +5 Mhz sub 1 Map
Symbol P-DA2PK 1788458519 DAPNET POCSAG Transmitter(0167CD)(ONLINE) Map
Symbol PY3LS B 1788458519 70cm Voice (D-Star) 433.11000MHz +0.0000MHz Map
Symbol DL4ALF-3 1788458519 Map
Symbol ALANSN-2 1788458519 W8FSM - Indoor 80.6F RH 56% UV 2.0 Map
Symbol EB7DFA-15 1788458519 aprs.to Map
Symbol BD5HTY-10 1788458519 LoRa APRS Map
Symbol P-WD0HDR 1788458519 DAPNET POCSAG Transmitter(048C)(ONLINE) Map
Symbol DL4ALF-1 1788458519 Map
Symbol OM1ALL-15 1788458519 LoRa APRS iGate Map
Symbol VE7VIC-C 1788458519 2m Voice 145.08 -0.6 MHz Map
Symbol K5RWS-7 1788458519 Map
Symbol MB7UAW 1788458519 MB7UAW digipeater | Owner G1AW | DireWolf 1.7 on Icom IC-208 Map
Symbol VE7VIC-A 1788458519 1.2 Voice 1291.5 -20MHz Map
Symbol WM9H-N 1788458519 70cm MMDVM Voice (C4FM) 420.69000MHz +0.0000MHz, WM9H_Pi-Star_ND Map
Symbol W8EWO-B 1788458519 70cm Voice (D-Star) 434.55000MHz +0.0000MHz Map